Content
SEND FEEDBACK

Daily
Averages
Monthly
Summary
United States of America

POTTS JUNCTION, GUAM


Home > North America > United States > Guam
Elevation: 360 feet     Latitude: 13 33N     Longitude: 144 50E

WEATHER
 
SELECT A DAY
Number of Records: 213,081;   Date Range: 1/1/95 - 9/30/14
 
SHARE

PRINT THIS DATA

[ ← Previous Day ]
WEATHER ALMANAC - FEBRUARY 21, 2013
[ Next Day → ]
[ °C ]   °F
Weather ElementAverageHighLow
Temperature81.2 °F86 °F (1:54 pm)75.6 °F (2:54 am)
Dewpoint73.4 °F76.8 °F (3:54 am)72 °F (1:54 am)
Humidity77.3 %100 % (3:54 am)64 % (2:54 pm)
Barometer29.85 in29.91 in (9:54 pm)29.81 in (2:54 am)
Wind Speed14.7 mph23 mph (12:54 pm)
Wind Gust29.9 mph (12:54 pm)
Weather ElementAverage
Visibility10 mi
Wind DirectionENE (66.8 °)

Weather ElementTotal
Precipitation0.01 in
Cooling Degree Days15.8 (Base 65)
Growing Degree Days30.8 (Base 50)
Averaged from 25 records on February 21, 2013
WEATHER CONDITIONS BREAKOUT
WIND DIRECTION BREAKOUT
WEATHER BY HOUR - FEBRUARY 21, 2013
[ °C ]   °F
Local TimeTemperatureDewpointHumidityBarometerVisibilityWind DirectionWind SpeedGust SpeedPrecipitationEventsConditions
1:54 AM79.0 °F72.0 °F79 %29.83 in10.0 miNE (50°)8.1 mphMostly Cloudy
2:54 AM75.6 °F73.0 °F92 %29.81 in10.0 miEast (80°)8.1 mph0.01 inRainLight Rain
3:54 AM76.8 °F76.8 °F100 %29.81 in10.0 miENE (60°)13.8 mphScattered Clouds
4:54 AM78.1 °F73.0 °F84 %29.81 in10.0 miENE (60°)13.8 mphScattered Clouds
5:54 AM77.4 °F72.0 °F83 %29.82 in10.0 miENE (60°)15.0 mphPartly Cloudy
6:54 AM78.1 °F72.0 °F81 %29.85 in10.0 miENE (60°)11.5 mphClear
7:54 AM79.0 °F73.0 °F82 %29.86 in10.0 miENE (60°)12.7 mphScattered Clouds
8:54 AM80.2 °F74.5 °F83 %29.88 in10.0 miENE (70°)15.0 mph23.0 mphOvercast
9:54 AM83.5 °F73.9 °F73 %29.88 in10.0 miNE (50°)20.7 mph25.3 mphPartly Cloudy
10:54 AM85.3 °F74.7 °F70 %29.88 in10.0 miENE (70°)17.3 mph26.5 mphScattered Clouds
11:54 AM84.6 °F74.3 °F71 %29.86 in10.0 miENE (70°)16.1 mph23.0 mphScattered Clouds
12:54 PM84.7 °F74.5 °F71 %29.84 in10.0 miENE (60°)23.0 mph29.9 mphScattered Clouds
1:54 PM86.0 °F73.2 °F65 %29.83 in10.0 miENE (60°)19.6 mphScattered Clouds
2:54 PM86.0 °F72.3 °F64 %29.82 in10.0 miEast (80°)20.7 mph26.5 mphPartly Cloudy
3:54 PM84.9 °F73.4 °F68 %29.81 in10.0 miEast (80°)18.4 mph25.3 mphPartly Cloudy
4:07 PM84.2 °F73.4 °F70 %29.84 in10.0 miEast (80°)18.4 mphMostly Cloudy
4:15 PM84.2 °F73.4 °F70 %29.84 in10.0 miEast (80°)17.3 mphScattered Clouds
4:54 PM83.7 °F73.2 °F71 %29.83 in10.0 miENE (60°)19.6 mph26.5 mphClear
5:54 PM82.0 °F73.6 °F75 %29.84 in10.0 miENE (70°)12.7 mphPartly Cloudy
6:54 PM80.6 °F72.7 °F77 %29.86 in10.0 miENE (60°)12.7 mph20.7 mphPartly Cloudy
7:54 PM79.7 °F73.0 °F80 %29.88 in10.0 miENE (60°)9.2 mphClear
8:54 PM79.7 °F73.6 °F81 %29.89 in10.0 miENE (70°)10.4 mphPartly Cloudy
9:54 PM79.3 °F73.6 °F82 %29.91 in10.0 miENE (70°)11.5 mphPartly Cloudy
10:54 PM79.2 °F73.4 °F82 %29.91 in10.0 miEast (80°)11.5 mphPartly Cloudy
11:54 PM79.2 °F72.3 °F79 %29.89 in10.0 miENE (70°)11.5 mphClear
Hourly data recorded from PGUM, located miles away from Potts Junction, Guam







STORIES FROM OUR PARTNERS